Regional Weather Roundup
Issued by NWS

Home | Current Version | Previous Version | Text Only | Print | Product List | Glossary Off
Versions: 1 2 3 4 5 6 7 8 9 10 11 12 13 14 15 16 17 18 19 20 21 22 23 24 25 26 27 28 29 30 31 32 33 34 35 36 37 38 39 40 41 42 43 44 45 46 47 48 49 50

000
ASUS43 KDTX 280010
RWRMI
MICHIGAN HOURLY REGIONAL WEATHER ROUNDUP
NATIONAL WEATHER SERVICE DETROIT/PONTIAC MI
700 PM EST MON FEB 27 2017

NOTE: "FAIR" INDICATES FEW OR NO CLOUDS BELOW 12,000 FEET WITH NO
SIGNIFICANT WEATHER AND/OR OBSTRUCTION TO VISIBILITY.

MIZ047>049-052>055-059>063-066>070-074>076-081>083-280100-
SOUTHEAST LOWER MICHIGAN

CITY           SKY/WX    TMP DP  RH WIND       PRES   REMARKS
ADRIAN         PTCLDY    43  35  73 S6        30.18S
6HR MIN TEMP:  43; 6HR MAX TEMP:  48;

ALMA           CLEAR     41  30  63 CALM      30.14S
ANN ARBOR      MOCLDY    44  34  67 S5        30.17S
BAD AXE        CLEAR     34  28  76 SE3       30.19S
6HR MIN TEMP:  34; 6HR MAX TEMP:  45;

CARO           CLEAR     40  29  65 CALM      30.15F
DETROIT CITY   CLOUDY    45  34  65 S9        30.20S
6HR MIN TEMP:  45; 6HR MAX TEMP:  51;

DETROIT        CLOUDY    46  34  62 SE8       30.20R
6HR MIN TEMP:  46; 6HR MAX TEMP:  52;

FLINT          PTCLDY    46  30  53 S8        30.16S
6HR MIN TEMP:  45; 6HR MAX TEMP:  51;

GROSSE ILE     CLOUDY    43  35  73 S7        30.19S
6HR MIN TEMP:  41; 6HR MAX TEMP:  47;

HILLSDALE      MOCLDY    43  34  70 SE5       30.15S
HOWELL         PTCLDY    43  30  60 S6        30.16S
6HR MIN TEMP:  43; 6HR MAX TEMP:  51;


CITY           SKY/WX    TMP DP  RH WIND       PRES   REMARKS
JACKSON        CLEAR     44  31  60 S8        30.16S
6HR MIN TEMP:  44; 6HR MAX TEMP:  52;

LAMBERTVILLE   MOCLDY    48  33  56 S5        30.19R
6HR MIN TEMP:  48; 6HR MAX TEMP:  52;

LANSING        CLEAR     45  27  49 S7        30.15S
6HR MIN TEMP:  45; 6HR MAX TEMP:  51;

LAPEER         MOCLDY    44  28  53 S3        30.17R
6HR MIN TEMP:  44; 6HR MAX TEMP:  51;

MASON          CLEAR     43  34  69 CALM      30.15S
MONROE         CLOUDY    46  34  61 S6        30.19R
6HR MIN TEMP:  46; 6HR MAX TEMP:  51;

MT. CLEMENS    MOCLDY    41  34  77 S9        30.18R
6HR MIN TEMP:  41; 6HR MAX TEMP:  49;

PONTIAC        PTCLDY    45  31  58 S5        30.16R
6HR MIN TEMP:  45; 6HR MAX TEMP:  50;

PORT HOPE        N/A     35  30  82 SE8       30.18R WCI  29
6HR MIN TEMP:  35; 6HR MAX TEMP:  37;

PORT HURON     PTCLDY    41  32  70 S8        30.20S
TRI CITIES     CLEAR     43  32  65 SE6       30.15S
6HR MIN TEMP:  43; 6HR MAX TEMP:  49;

MIDLAND        FAIR      43  28  56 CALM      30.14S
6HR MIN TEMP:  43; 6HR MAX TEMP:  48;

TROY           PTCLDY    46  31  55 S6        30.20S
SAGINAW HB     CLEAR     41  30  65 SE3       30.15S
$$
MIZ043>046-050>051-056>058-064>065-071>073-077>080-280100-
SOUTHWEST LOWER MICHIGAN

CITY           SKY/WX    TMP DP  RH WIND       PRES   REMARKS
BATTLE CREEK   MOCLDY    45  33  63 S7        30.14S
6HR MIN TEMP:  44; 6HR MAX TEMP:  51;

BENTON HARBOR  MOCLDY    48  33  56 SE6       30.12S
6HR MIN TEMP:  48; 6HR MAX TEMP:  52;

BIG RAPIDS     CLEAR     38  28  65 CALM      30.11S
6HR MIN TEMP:  38; 6HR MAX TEMP:  47;

COLDWATER      PTCLDY    43  32  64 SE3       30.15S
6HR MIN TEMP:  43; 6HR MAX TEMP:  51;

FREMONT        FAIR      41  24  51 S3        30.11S
6HR MIN TEMP:  41; 6HR MAX TEMP:  48;

HOLLAND        MOCLDY    42  32  67 S3        30.12F
6HR MIN TEMP:  42; 6HR MAX TEMP:  51;

GRAND RAPIDS   MOCLDY    43  28  55 S7        30.12S
6HR MIN TEMP:  43; 6HR MAX TEMP:  50;

IONIA          MOCLDY    44  28  53 S5        30.12S
6HR MIN TEMP:  44; 6HR MAX TEMP:  49;

KALAMAZOO      MOCLDY    46  31  55 S5        30.14R
6HR MIN TEMP:  46; 6HR MAX TEMP:  51;

LUDINGTON      CLEAR     38  31  74 SE5       30.09F WCI  35
6HR MIN TEMP:  38; 6HR MAX TEMP:  44;

MARSHALL       MOCLDY    45  32  61 S3        30.14S
6HR MIN TEMP:  44; 6HR MAX TEMP:  51;

MOUNT PLEASANT CLEAR     40  28  64 SE3       30.12S
6HR MIN TEMP:  40; 6HR MAX TEMP:  48;

MUSKEGON       MOCLDY    43  32  65 S7        30.11F
6HR MIN TEMP:  42; 6HR MAX TEMP:  48;

SOUTH HAVEN    MOCLDY    44  32  63 CALM      30.12S
$$
MIZ016>042-280100-
NORTHERN LOWER MICHIGAN

CITY           SKY/WX    TMP DP  RH WIND       PRES   REMARKS
ALPENA         PTCLDY    31  28  89 E5        30.15S WCI  26
6HR MIN TEMP:  31; 6HR MAX TEMP:  39;

BEAVER ISLAND  CLEAR     30  24  77 CALM      30.10S
6HR MIN TEMP:  30; 6HR MAX TEMP:  37;

BELLAIRE       PTCLDY    34  25  70 CALM      30.11R
6HR MIN TEMP:  34; 6HR MAX TEMP:  43;

CADILLAC       CLOUDY    39  24  53 SE3       30.09S
CHARLEVOIX     PTCLDY    33  25  71 CALM      30.13S
6HR MIN TEMP:  33; 6HR MAX TEMP:  40;

FRANKFORT      CLOUDY    36  30  79 CALM      30.10S
GAYLORD        MOCLDY    37  19  48 S6        30.09S WCI  32
6HR MIN TEMP:  35; 6HR MAX TEMP:  42;

GRAYLING       CLOUDY    40  24  52 W6        30.11S
HARBOR SPRINGS CLEAR     32  22  65 CALM      30.11S
HOUGHTON LAKE  CLOUDY    37  22  54 SE6       30.12S WCI  32
6HR MIN TEMP:  37; 6HR MAX TEMP:  44;

MANISTEE       PTCLDY    37  26  64 CALM      30.10S
OSCODA         CLEAR     34  31  87 S6        30.17S WCI  29
6HR MIN TEMP:  34; 6HR MAX TEMP:  42;

PELLSTON       CLEAR     30  18  60 SE5       30.12S WCI  25
6HR MIN TEMP:  30; 6HR MAX TEMP:  41;

ROGERS CITY    CLEAR     33  26  76 SE7       30.14F WCI  26
TRAVERSE CITY  CLOUDY    41  27  57 S3        30.10S
6HR MIN TEMP:  41; 6HR MAX TEMP:  46;

$$
MIZ007>008-015-280100-
EASTERN UPPER MICHIGAN

CITY           SKY/WX    TMP DP  RH WIND       PRES   REMARKS
KINROSS        PTCLDY    26  21  81 SE13      30.12S WCI  15
6HR MIN TEMP:  26; 6HR MAX TEMP:  35;

MACKINAC ISLAN CLEAR     30  24  78 E9        30.11S WCI  21
6HR MIN TEMP:  29; 6HR MAX TEMP:  32;

NEWBERRY       PTCLDY    28  22  78 S8        30.07S WCI  20
6HR MIN TEMP:  27; 6HR MAX TEMP:  31;

S. S. MARIE    CLEAR     30  18  60 SE10      30.12S WCI  21
6HR MIN TEMP:  29; 6HR MAX TEMP:  33;

MUNISING         N/A     35  25  66 S9        30.03R WCI  28
6HR MIN TEMP:  30; 6HR MAX TEMP:  38;

$$
MIZ004>006-011>014-085-280100-
CENTRAL UPPER MICHIGAN

CITY           SKY/WX    TMP DP  RH WIND       PRES   REMARKS
MANISTIQUE     CLEAR     33  32  96 S5        30.07S WCI  28
6HR MIN TEMP:  29; 6HR MAX TEMP:  34;

ESCANABA       PTCLDY    33  27  78 S5        30.06S WCI  29
6HR MIN TEMP:  33; 6HR MAX TEMP:  38;

MENOMINEE      CLEAR     35  25  66 S7        30.06S WCI  29
6HR MIN TEMP:  35; 6HR MAX TEMP:  40;

SAWYER-GWINN   CLEAR     34  23  64 S12       29.99S WCI  25
$$
MIZ001>003-009>011-084-280100-
WESTERN UPPER MICHIGAN

CITY           SKY/WX    TMP DP  RH WIND       PRES   REMARKS
IRON MOUNTAIN  PTCLDY    36  19  50 S7        29.98S WCI  30
6HR MIN TEMP:  31; 6HR MAX TEMP:  41;

HOUGHTON       CLEAR     23  18  81 E3        29.94S
6HR MIN TEMP:  23; 6HR MAX TEMP:  30; 6HR PCP: TRACE;

COPPER HARBOR    N/A     30  23  75 CALM      29.97F
6HR MIN TEMP:  27; 6HR MAX TEMP:  30; 6HR PCP:  0.02;

IRONWOOD       PTCLDY    38  16  40 S6        29.92R WCI  33
6HR MIN TEMP:  32; 6HR MAX TEMP:  42;

$$

ABBREVIATIONS USED IN REMARKS
   TC - TEMPERATURE IN CELSIUS
  WCI - WIND CHILL INDEX
   HX - HEAT INDEX
  VSB - VISIBILITY





USA.gov is the U.S. government's official web portal to all federal, state and local government web resources and services.